Weather in Lapotkovo

Russia / Tula Oblast     53°50′28″N   37°25′31″E
temp.,
°C
wind,
m/s
gust,
m/s
humid.,
%
clouds,
%
prec.,
mm/h
press.,
hPa
HPBL,
m
9 march, tue
tue900:00−13nnw239277 0.0 101020
03:00−15nnw339445 0.0 101323
06:00−15nnw339778 0.0 101449
09:00−15nnw379568 0.1 1015246
12:00−12nnw468989 0.0 1017533
15:00−10nw468594 0.1 1018750
18:00−13nw3690100 0.0 1019101
21:00−16nw479174 0.0 1022117
10 march, wed
wed1000:00−19nnw349636 0.0 102344
03:00−21nw339830 0.0 102523
06:00−22nnw23990 0.0 102620
09:00−20nnw23960 0.0 1028134
12:00−16n338452 0.0 1028386
15:00−14n348176 0.0 1028494
18:00−18nne239263 0.0 102920
21:00−22ene339531 0.0 103120
11 march, thu
thu1100:00−24ene22930 0.0 103220
03:00−25e11930 0.0 103420
06:00−25ene11890 0.0 103420
09:00−21ene11810 0.0 103529
12:00−15ese11730 0.0 1035232
15:00−13se11710 0.0 1034298
18:00−17sse23850 0.0 103320
21:00−20s23830 0.0 103420
12 march, fri
fri1200:00−21s33790 0.0 103420
03:00−21s34800 0.0 103448
06:00−21s44840 0.0 103460
09:00−17s59830 0.0 1033232
12:00−12s69800 0.0 1032416
15:00−10s610780 0.0 1031520
18:00−13s613860 0.0 1030349
21:00−13s7158050 0.0 1030402
13 march, sat
sat1300:00−11s81775100 0.0 1028472
03:00−10s81774100 0.0 1026575
06:00−10s81778100 0.0 1025621
09:00−8ssw101782100 0.0 1024733
12:00−6ssw91588100 0.1 1024732
15:00−5ssw81392100 0.7 1023728
18:00−5ssw71390100 0.4 1022628
21:00−5ssw61391100 0.4 1022524